owner,sensor,date,latitude,longitude,vertical_datum,direction_of_sea_water_velocity,sea_water_speed,upward_sea_water_velocity,qcFlag 
TABS,ioos:station:wmo:42049:1,2012-04-01T00:00:00Z,28.3507,-96.0058,2.0,278.9992412,49.99536779,-99999.0,'11111222,11111222,99999999' 
TABS,ioos:station:wmo:42049:1,2012-04-01T00:30:00Z,28.3507,-96.0058,2.0,287.0041392,20.0044845,-99999.0,'11111222,11111222,99999999' 
TABS,ioos:station:wmo:42049:1,2012-04-01T01:00:00Z,28.3507,-96.0058,2.0,286.9998597,50.99824507,-99999.0,'11111222,11111222,99999999' 
TABS,ioos:station:wmo:42049:1,2012-04-01T01:30:00Z,28.3507,-96.0058,2.0,293.0007632,52.00422387,-99999.0,'11111222,11111222,99999999' 
TABS,ioos:station:wmo:42049:1,2012-04-01T02:00:00Z,28.3507,-96.0058,2.0,294.0020131,51.99588926,-99999.0,'11111222,11111222,99999999' 
TABS,ioos:station:wmo:42049:1,2012-04-01T02:30:00Z,28.3507,-96.0058,2.0,299.0025865,51.00612708,-99999.0,'11111222,11111222,99999999' 
TABS,ioos:station:wmo:42049:1,2012-04-01T03:00:00Z,28.3507,-96.0058,2.0,299.9985875,46.00245211,-99999.0,'11111222,11111222,99999999' 
TABS,ioos:station:wmo:42049:1,2012-04-01T03:30:00Z,28.3507,-96.0058,2.0,307.9997363,42.0041617,-99999.0,'11111222,11111222,99999999' 
TABS,ioos:station:wmo:42049:1,2012-04-01T04:00:00Z,28.3507,-96.0058,2.0,305.0034751,38.00416951,-99999.0,'11111222,11111222,99999999' 
TABS,ioos:station:wmo:42049:1,2012-04-01T04:30:00Z,28.3507,-96.0058,2.0,299.0035888,39.00102819,-99999.0,'11111222,11111222,99999999' 
TABS,ioos:station:wmo:42049:1,2012-04-01T05:00:00Z,28.3507,-96.0058,2.0,302.0072866,38.99838202,-99999.0,'11111222,11111222,99999999' 
TABS,ioos:station:wmo:42049:1,2012-04-01T05:30:00Z,28.3507,-96.0058,2.0,298.9934528,38.00255255,-99999.0,'11111222,11111222,99999999' 
TABS,ioos:station:wmo:42049:1,2012-04-01T06:00:00Z,28.3507,-96.0058,2.0,297.078109,3.998249617,-99999.0,'11133222,11111222,99999999' 
TABS,ioos:station:wmo:42049:1,2012-04-01T06:30:00Z,28.3507,-96.0058,2.0,331.9987468,37.99826443,-99999.0,'11111222,11111222,99999999' 
TABS,ioos:station:wmo:42049:1,2012-04-01T07:00:00Z,28.3507,-96.0058,2.0,305.9928089,35.00210422,-99999.0,'11111222,11111222,99999999' 
TABS,ioos:station:wmo:42049:1,2012-04-01T07:30:00Z,28.3507,-96.0058,2.0,45.00010523,32.99360241,-99999.0,'11111222,11111222,99999999' 
TABS,ioos:station:wmo:42049:1,2012-04-01T08:00:00Z,28.3507,-96.0058,2.0,306.0088274,29.00127756,-99999.0,'11111222,11111222,99999999' 
TABS,ioos:station:wmo:42049:1,2012-04-01T08:30:00Z,28.3507,-96.0058,2.0,300.0010785,24.99944999,-99999.0,'11111222,11111222,99999999' 
TABS,ioos:station:wmo:42049:1,2012-04-01T09:00:00Z,28.3507,-96.0058,2.0,79.98835662,18.00416063,-99999.0,'11111222,11111222,99999999' 
TABS,ioos:station:wmo:42049:1,2012-04-01T09:30:00Z,28.3507,-96.0058,2.0,297.0208054,9.002694041,-99999.0,'11133222,11111222,99999999' 
TABS,ioos:station:wmo:42049:1,2012-04-01T10:00:00Z,28.3507,-96.0058,2.0,293.9701258,7.9999125,-99999.0,'11133222,11111222,99999999' 
TABS,ioos:station:wmo:42049:1,2012-04-01T10:30:00Z,28.3507,-96.0058,2.0,270.0004209,1.0,-99999.0,'11133222,11111222,99999999' 
TABS,ioos:station:wmo:42049:1,2012-04-01T11:00:00Z,28.3507,-96.0058,2.0,257.0049927,4.002499219,-99999.0,'11133222,11111222,99999999' 
TABS,ioos:station:wmo:42049:1,2012-04-01T11:30:00Z,28.3507,-96.0058,2.0,251.9272992,2.997899264,-99999.0,'11133222,11111222,99999999' 
TABS,ioos:station:wmo:42049:1,2012-04-01T12:00:00Z,28.3507,-96.0058,2.0,214.9969451,17.99360998,-99999.0,'11111222,11111222,99999999' 
TABS,ioos:station:wmo:42049:1,2012-04-01T12:30:00Z,28.3507,-96.0058,2.0,245.034611,4.004122875,-99999.0,'11133222,11111222,99999999' 
TABS,ioos:station:wmo:42049:1,2012-04-01T13:00:00Z,28.3507,-96.0058,2.0,218.0153611,5.0009999,-99999.0,'11133222,11111222,99999999' 
TABS,ioos:station:wmo:42049:1,2012-04-01T13:30:00Z,28.3507,-96.0058,2.0,177.0030194,78.99803162,-99999.0,'11111222,11111222,99999999' 
TABS,ioos:station:wmo:42049:1,2012-04-01T14:00:00Z,28.3507,-96.0058,2.0,224.9996843,5.996265504,-99999.0,'11133222,11111222,99999999' 
TABS,ioos:station:wmo:42049:1,2012-04-01T14:30:00Z,28.3507,-96.0058,2.0,224.9996843,7.000357134,-99999.0,'11133222,11111222,99999999' 
TABS,ioos:station:wmo:42049:1,2012-04-01T15:00:00Z,28.3507,-96.0058,2.0,224.9996843,7.000357134,-99999.0,'11133222,11111222,99999999' 
TABS,ioos:station:wmo:42049:1,2012-04-01T15:30:00Z,28.3507,-96.0058,2.0,224.9996843,7.000357134,-99999.0,'11133222,11111222,99999999' 
TABS,ioos:station:wmo:42049:1,2012-04-01T16:30:00Z,28.3507,-96.0058,2.0,230.0140735,11.0022634,-99999.0,'11111222,11111222,99999999' 
TABS,ioos:station:wmo:42049:1,2012-04-01T17:00:00Z,28.3507,-96.0058,2.0,252.0075683,9.00011111,-99999.0,'11133222,11111222,99999999' 
TABS,ioos:station:wmo:42049:1,2012-04-01T17:30:00Z,28.3507,-96.0058,2.0,244.9953296,11.00106358,-99999.0,'11111222,11111222,99999999' 
TABS,ioos:station:wmo:42049:1,2012-04-01T18:00:00Z,28.3507,-96.0058,2.0,224.9996843,14.00071427,-99999.0,'11111222,11111222,99999999' 
TABS,ioos:station:wmo:42049:1,2012-04-01T18:30:00Z,28.3507,-96.0058,2.0,233.0030743,18.99404644,-99999.0,'11111222,11111222,99999999' 
TABS,ioos:station:wmo:42049:1,2012-04-01T19:00:00Z,28.3507,-96.0058,2.0,229.9887149,20.00204989,-99999.0,'11111222,11111222,99999999' 
TABS,ioos:station:wmo:42049:1,2012-04-01T19:30:00Z,28.3507,-96.0058,2.0,239.9989215,19.99956,-99999.0,'11111222,11111222,99999999' 
TABS,ioos:station:wmo:42049:1,2012-04-01T20:00:00Z,28.3507,-96.0058,2.0,239.9989215,19.99956,-99999.0,'11111222,11111222,99999999' 
TABS,ioos:station:wmo:42049:1,2012-04-01T20:30:00Z,28.3507,-96.0058,2.0,240.0014125,23.00122605,-99999.0,'11111222,11111222,99999999' 
TABS,ioos:station:wmo:42049:1,2012-04-01T21:00:00Z,28.3507,-96.0058,2.0,244.9953296,22.00212717,-99999.0,'11111222,11111222,99999999' 
TABS,ioos:station:wmo:42049:1,2012-04-01T21:30:00Z,28.3507,-96.0058,2.0,244.9924343,25.00400968,-99999.0,'11111222,11111222,99999999' 
TABS,ioos:station:wmo:42049:1,2012-04-01T22:00:00Z,28.3507,-96.0058,2.0,245.9879212,25.99997885,-99999.0,'11111222,11111222,99999999' 
TABS,ioos:station:wmo:42049:1,2012-04-01T22:30:00Z,28.3507,-96.0058,2.0,251.9921908,25.00482553,-99999.0,'11111222,11111222,99999999' 
TABS,ioos:station:wmo:42049:1,2012-04-01T23:00:00Z,28.3507,-96.0058,2.0,261.0082202,27.00180179,-99999.0,'11111222,11111222,99999999' 
TABS,ioos:station:wmo:42049:1,2012-04-01T23:30:00Z,28.3507,-96.0058,2.0,261.0051291,29.99888331,-99999.0,'11111222,11111222,99999999' 
TABS,ioos:station:wmo:42049:1,2012-04-02T00:00:00Z,28.3507,-96.0058,2.0,270.0004209,30.0,-99999.0,'11111222,11111222,99999999' 
TABS,ioos:station:wmo:42049:1,2012-04-02T00:30:00Z,28.3507,-96.0058,2.0,274.9908287,30.00373643,-99999.0,'11111222,11111222,99999999' 
TABS,ioos:station:wmo:42049:1,2012-04-02T01:00:00Z,28.3507,-96.0058,2.0,281.0013323,24.00104164,-99999.0,'11111222,11111222,99999999' 
TABS,ioos:station:wmo:42049:1,2012-04-02T01:30:00Z,28.3507,-96.0058,2.0,273.0001525,30.00110831,-99999.0,'11111222,11111222,99999999' 
TABS,ioos:station:wmo:42049:1,2012-04-02T02:00:00Z,28.3507,-96.0058,2.0,274.9949682,33.99909558,-99999.0,'11111222,11111222,99999999' 
TABS,ioos:station:wmo:42049:1,2012-04-02T02:30:00Z,28.3507,-96.0058,2.0,278.005996,40.99956219,-99999.0,'11111222,11111222,99999999' 
TABS,ioos:station:wmo:42049:1,2012-04-02T05:30:00Z,28.3507,-96.0058,2.0,282.0044527,45.00411092,-99999.0,'11111222,11111222,99999999' 
TABS,ioos:station:wmo:42049:1,2012-04-02T06:00:00Z,28.3507,-96.0058,2.0,203.9954654,41.99980119,-99999.0,'11111222,11111222,99999999' 
TABS,ioos:station:wmo:42049:1,2012-04-02T06:30:00Z,28.3507,-96.0058,2.0,280.9941261,42.99911743,-99999.0,'11111222,11111222,99999999' 
TABS,ioos:station:wmo:42049:1,2012-04-02T07:00:00Z,28.3507,-96.0058,2.0,278.005996,40.99956219,-99999.0,'11111222,11111222,99999999' 
TABS,ioos:station:wmo:42049:1,2012-04-02T07:30:00Z,28.3507,-96.0058,2.0,270.0004209,39.0,-99999.0,'11111222,11111222,99999999' 
TABS,ioos:station:wmo:42049:1,2012-04-02T08:00:00Z,28.3507,-96.0058,2.0,264.0024259,37.99796047,-99999.0,'11111222,11111222,99999999' 
TABS,ioos:station:wmo:42049:1,2012-04-02T08:30:00Z,28.3507,-96.0058,2.0,264.005584,33.99586151,-99999.0,'11111222,11111222,99999999' 
TABS,ioos:station:wmo:42049:1,2012-04-02T09:00:00Z,28.3507,-96.0058,2.0,256.9969406,32.00050625,-99999.0,'11111222,11111222,99999999' 
TABS,ioos:station:wmo:42049:1,2012-04-02T09:30:00Z,28.3507,-96.0058,2.0,261.0029806,36.00292349,-99999.0,'11111222,11111222,99999999' 
TABS,ioos:station:wmo:42049:1,2012-04-02T10:00:00Z,28.3507,-96.0058,2.0,244.9930351,36.99824996,-99999.0,'11111222,11111222,99999999' 
TABS,ioos:station:wmo:42049:1,2012-04-02T10:30:00Z,28.3507,-96.0058,2.0,235.9917574,27.99892319,-99999.0,'11111222,11111222,99999999' 
TABS,ioos:station:wmo:42049:1,2012-04-02T11:00:00Z,28.3507,-96.0058,2.0,190.9858454,17.00157934,-99999.0,'11111222,11111222,99999999' 
TABS,ioos:station:wmo:42049:1,2012-04-02T11:30:00Z,28.3507,-96.0058,2.0,183.0029352,25.00433962,-99999.0,'11111222,11111222,99999999' 
TABS,ioos:station:wmo:42049:1,2012-04-02T12:00:00Z,28.3507,-96.0058,2.0,226.9808192,17.99955555,-99999.0,'11111222,11111222,99999999' 
TABS,ioos:station:wmo:42049:1,2012-04-02T12:30:00Z,28.3507,-96.0058,2.0,209.9932864,16.0031122,-99999.0,'11111222,11111222,99999999' 
TABS,ioos:station:wmo:42049:1,2012-04-02T13:00:00Z,28.3507,-96.0058,2.0,176.9994065,17.0033085,-99999.0,'11111222,11111222,99999999' 
TABS,ioos:station:wmo:42049:1,2012-04-02T13:30:00Z,28.3507,-96.0058,2.0,176.9809866,15.00081664,-99999.0,'11111222,11111222,99999999' 
TABS,ioos:station:wmo:42049:1,2012-04-02T14:00:00Z,28.3507,-96.0058,2.0,204.0029237,10.00522364,-99999.0,'11111222,11111222,99999999' 
TABS,ioos:station:wmo:42049:1,2012-04-02T14:30:00Z,28.3507,-96.0058,2.0,255.0101839,6.998121176,-99999.0,'11133222,11111222,99999999' 
TABS,ioos:station:wmo:42049:1,2012-04-02T15:00:00Z,28.3507,-96.0058,2.0,219.0472388,6.000333324,-99999.0,'11133222,11111222,99999999' 
TABS,ioos:station:wmo:42049:1,2012-04-02T15:30:00Z,28.3507,-96.0058,2.0,207.0774776,1.999124809,-99999.0,'11133222,11111222,99999999' 
TABS,ioos:station:wmo:42049:1,2012-04-02T16:00:00Z,28.3507,-96.0058,2.0,237.0135442,6.998071163,-99999.0,'11133222,11111222,99999999' 
TABS,ioos:station:wmo:42049:1,2012-04-02T16:30:00Z,28.3507,-96.0058,2.0,218.0153611,10.0019998,-99999.0,'11111222,11111222,99999999' 
TABS,ioos:station:wmo:42049:1,2012-04-02T17:30:00Z,28.3507,-96.0058,2.0,214.9969451,17.99360998,-99999.0,'11111222,11111222,99999999' 
TABS,ioos:station:wmo:42049:1,2012-04-02T18:00:00Z,28.3507,-96.0058,2.0,215.0045295,21.99965454,-99999.0,'11111222,11111222,99999999' 
TABS,ioos:station:wmo:42049:1,2012-04-02T18:30:00Z,28.3507,-96.0058,2.0,218.0022314,26.00308059,-99999.0,'11111222,11111222,99999999' 
TABS,ioos:station:wmo:42049:1,2012-04-02T19:00:00Z,28.3507,-96.0058,2.0,220.9945411,33.00349375,-99999.0,'11111222,11111222,99999999' 
TABS,ioos:station:wmo:42049:1,2012-04-02T19:30:00Z,28.3507,-96.0058,2.0,218.9984026,33.00477844,-99999.0,'11111222,11111222,99999999' 
TABS,ioos:station:wmo:42049:1,2012-04-02T20:00:00Z,28.3507,-96.0058,2.0,221.0023346,34.99499536,-99999.0,'11111222,11111222,99999999' 
TABS,ioos:station:wmo:42049:1,2012-04-02T20:30:00Z,28.3507,-96.0058,2.0,227.9967756,38.00240124,-99999.0,'11111222,11111222,99999999' 
TABS,ioos:station:wmo:42049:1,2012-04-02T22:30:00Z,28.3507,-96.0058,2.0,234.0048399,44.0011318,-99999.0,'11111222,11111222,99999999' 
TABS,ioos:station:wmo:42049:1,2012-04-02T23:00:00Z,28.3507,-96.0058,2.0,239.0046322,44.00311353,-99999.0,'11111222,11111222,99999999' 
TABS,ioos:station:wmo:42049:1,2012-04-02T23:30:00Z,28.3507,-96.0058,2.0,239.9975572,41.99734396,-99999.0,'11111222,11111222,99999999' 
TABS,ioos:station:wmo:42049:1,2012-04-03T00:00:00Z,28.3507,-96.0058,2.0,238.9970505,43.00328011,-99999.0,'11111222,11111222,99999999' 
TABS,ioos:station:wmo:42049:1,2012-04-03T01:00:00Z,28.3507,-96.0058,2.0,242.9953178,41.99906308,-99999.0,'11111222,11111222,99999999' 
TABS,ioos:station:wmo:42049:1,2012-04-03T01:30:00Z,28.3507,-96.0058,2.0,248.9948136,39.0016474,-99999.0,'11111222,11111222,99999999' 
TABS,ioos:station:wmo:42049:1,2012-04-03T02:00:00Z,28.3507,-96.0058,2.0,256.9978358,36.00300543,-99999.0,'11111222,11111222,99999999' 
TABS,ioos:station:wmo:42049:1,2012-04-03T03:30:00Z,28.3507,-96.0058,2.0,257.9982174,39.00249479,-99999.0,'11111222,11111222,99999999' 
TABS,ioos:station:wmo:42049:1,2012-04-03T04:00:00Z,28.3507,-96.0058,2.0,263.0017408,38.00309593,-99999.0,'11111222,11111222,99999999' 
TABS,ioos:station:wmo:42049:1,2012-04-03T04:30:00Z,28.3507,-96.0058,2.0,263.9962605,37.00293096,-99999.0,'11111222,11111222,99999999' 
TABS,ioos:station:wmo:42049:1,2012-04-03T05:00:00Z,28.3507,-96.0058,2.0,263.0017408,38.00309593,-99999.0,'11111222,11111222,99999999' 
TABS,ioos:station:wmo:42049:1,2012-04-03T05:30:00Z,28.3507,-96.0058,2.0,312.0032244,38.00240124,-99999.0,'11111222,11111222,99999999' 
TABS,ioos:station:wmo:42049:1,2012-04-03T06:00:00Z,28.3507,-96.0058,2.0,254.9902548,8.996943926,-99999.0,'11133222,11111222,99999999' 
TABS,ioos:station:wmo:42049:1,2012-04-03T06:30:00Z,28.3507,-96.0058,2.0,258.0006799,38.00024868,-99999.0,'11111222,11111222,99999999' 
TABS,ioos:station:wmo:42049:1,2012-04-03T07:00:00Z,28.3507,-96.0058,2.0,258.0020406,41.99737254,-99999.0,'11111222,11111222,99999999' 
TABS,ioos:station:wmo:42049:1,2012-04-03T07:30:00Z,28.3507,-96.0058,2.0,267.0060385,35.9991236,-99999.0,'11111222,11111222,99999999' 
TABS,ioos:station:wmo:42049:1,2012-04-03T08:00:00Z,28.3507,-96.0058,2.0,263.001654,32.99580125,-99999.0,'11111222,11111222,99999999' 
TABS,ioos:station:wmo:42049:1,2012-04-03T08:30:00Z,28.3507,-96.0058,2.0,263.9974416,35.00188138,-99999.0,'11111222,11111222,99999999' 
TABS,ioos:station:wmo:42049:1,2012-04-03T09:00:00Z,28.3507,-96.0058,2.0,264.0024259,37.99796047,-99999.0,'11111222,11111222,99999999' 
TABS,ioos:station:wmo:42049:1,2012-04-03T10:30:00Z,28.3507,-96.0058,2.0,268.9938801,48.9975479,-99999.0,'11111222,11111222,99999999' 
TABS,ioos:station:wmo:42049:1,2012-04-03T11:00:00Z,28.3507,-96.0058,2.0,274.9944051,43.99702035,-99999.0,'11111222,11111222,99999999' 
TABS,ioos:station:wmo:42049:1,2012-04-03T11:30:00Z,28.3507,-96.0058,2.0,269.0030169,45.99695751,-99999.0,'11111222,11111222,99999999' 
TABS,ioos:station:wmo:42049:1,2012-04-03T12:00:00Z,28.3507,-96.0058,2.0,268.9998417,46.99715417,-99999.0,'11111222,11111222,99999999' 
TABS,ioos:station:wmo:42049:1,2012-04-03T12:30:00Z,28.3507,-96.0058,2.0,269.0001054,42.99654172,-99999.0,'11111222,11111222,99999999' 
TABS,ioos:station:wmo:42049:1,2012-04-03T13:00:00Z,28.3507,-96.0058,2.0,270.0004209,43.0,-99999.0,'11111222,11111222,99999999' 
TABS,ioos:station:wmo:42049:1,2012-04-03T13:30:00Z,28.3507,-96.0058,2.0,265.9998127,38.99497916,-99999.0,'11111222,11111222,99999999' 
TABS,ioos:station:wmo:42049:1,2012-04-03T14:00:00Z,28.3507,-96.0058,2.0,269.0016268,31.00470287,-99999.0,'11111222,11111222,99999999' 
TABS,ioos:station:wmo:42049:1,2012-04-03T14:30:00Z,28.3507,-96.0058,2.0,284.9966628,33.00403006,-99999.0,'11111222,11111222,99999999' 
TABS,ioos:station:wmo:42049:1,2012-04-03T17:00:00Z,28.3507,-96.0058,2.0,270.0004209,23.0,-99999.0,'11111222,11111222,99999999' 
TABS,ioos:station:wmo:42049:1,2012-04-03T17:30:00Z,28.3507,-96.0058,2.0,249.0107331,21.99968182,-99999.0,'11111222,11111222,99999999' 
TABS,ioos:station:wmo:42049:1,2012-04-03T18:00:00Z,28.3507,-96.0058,2.0,245.997486,22.00255667,-99999.0,'11111222,11111222,99999999' 
TABS,ioos:station:wmo:42049:1,2012-04-03T18:30:00Z,28.3507,-96.0058,2.0,252.0013979,38.99834099,-99999.0,'11111222,11111222,99999999' 
TABS,ioos:station:wmo:42049:1,2012-04-03T19:00:00Z,28.3507,-96.0058,2.0,242.9995472,42.9963545,-99999.0,'11111222,11111222,99999999' 
TABS,ioos:station:wmo:42049:1,2012-04-03T19:30:00Z,28.3507,-96.0058,2.0,239.9977023,46.99723396,-99999.0,'11111222,11111222,99999999' 
TABS,ioos:station:wmo:42049:1,2012-04-03T20:00:00Z,28.3507,-96.0058,2.0,238.9999895,51.99666624,-99999.0,'11111222,11111222,99999999' 
TABS,ioos:station:wmo:42049:1,2012-04-03T20:30:00Z,28.3507,-96.0058,2.0,256.9975604,52.00325855,-99999.0,'11111222,11111222,99999999' 
TABS,ioos:station:wmo:42049:1,2012-04-04T05:00:00Z,28.3507,-96.0058,2.0,250.999658,59.00464558,-99999.0,'11111222,11111222,99999999' 
TABS,ioos:station:wmo:42049:1,2012-04-04T05:30:00Z,28.3507,-96.0058,2.0,251.0023568,57.99896551,-99999.0,'11111222,11111222,99999999' 
TABS,ioos:station:wmo:42049:1,2012-04-04T06:00:00Z,28.3507,-96.0058,2.0,248.9961585,58.00384987,-99999.0,'11111222,11111222,99999999' 
TABS,ioos:station:wmo:42049:1,2012-04-04T06:30:00Z,28.3507,-96.0058,2.0,247.9960703,60.00039417,-99999.0,'11111222,11111222,99999999' 
TABS,ioos:station:wmo:42049:1,2012-04-04T07:00:00Z,28.3507,-96.0058,2.0,248.9961585,58.00384987,-99999.0,'11111222,11111222,99999999' 
TABS,ioos:station:wmo:42049:1,2012-04-04T07:30:00Z,28.3507,-96.0058,2.0,246.0026703,53.99713418,-99999.0,'11111222,11111222,99999999' 
TABS,ioos:station:wmo:42049:1,2012-04-04T08:00:00Z,28.3507,-96.0058,2.0,245.9976334,53.00311312,-99999.0,'11111222,11111222,99999999' 
TABS,ioos:station:wmo:42049:1,2012-04-04T08:30:00Z,28.3507,-96.0058,2.0,242.0023828,56.00416592,-99999.0,'11111222,11111222,99999999' 
TABS,ioos:station:wmo:42049:1,2012-04-04T09:00:00Z,28.3507,-96.0058,2.0,248.99613,52.00530838,-99999.0,'11111222,11111222,99999999' 
TABS,ioos:station:wmo:42049:1,2012-04-04T09:30:00Z,28.3507,-96.0058,2.0,254.9957703,52.99674047,-99999.0,'11111222,11111222,99999999' 
TABS,ioos:station:wmo:42049:1,2012-04-04T11:00:00Z,28.3507,-96.0058,2.0,320.9949525,64.99913999,-99999.0,'11111222,11111222,99999999' 
TABS,ioos:station:wmo:42049:1,2012-04-04T11:30:00Z,28.3507,-96.0058,2.0,271.9967424,59.99641406,-99999.0,'11111222,11111222,99999999' 
TABS,ioos:station:wmo:42049:1,2012-04-04T12:00:00Z,28.3507,-96.0058,2.0,272.0014562,58.99597613,-99999.0,'11111222,11111222,99999999' 
TABS,ioos:station:wmo:42049:1,2012-04-04T12:30:00Z,28.3507,-96.0058,2.0,248.0047856,44.0026181,-99999.0,'11111222,11111222,99999999' 
TABS,ioos:station:wmo:42049:1,2012-04-04T13:00:00Z,28.3507,-96.0058,2.0,268.9994294,54.99837907,-99999.0,'11111222,11111222,99999999' 
TABS,ioos:station:wmo:42049:1,2012-04-04T13:30:00Z,28.3507,-96.0058,2.0,268.9994294,54.99837907,-99999.0,'11111222,11111222,99999999' 
TABS,ioos:station:wmo:42049:1,2012-04-04T14:00:00Z,28.3507,-96.0058,2.0,265.9972444,50.00194496,-99999.0,'11111222,11111222,99999999' 
TABS,ioos:station:wmo:42049:1,2012-04-04T16:30:00Z,28.3507,-96.0058,2.0,255.001768,50.00333589,-99999.0,'11111222,11111222,99999999' 
TABS,ioos:station:wmo:42049:1,2012-04-04T17:00:00Z,28.3507,-96.0058,2.0,251.9995466,49.99704991,-99999.0,'11111222,11111222,99999999' 
TABS,ioos:station:wmo:42049:1,2012-04-04T17:30:00Z,28.3507,-96.0058,2.0,122.0036214,36.00176801,-99999.0,'11111222,11111222,99999999' 
TABS,ioos:station:wmo:42049:1,2012-04-04T18:00:00Z,28.3507,-96.0058,2.0,249.0015707,49.00424573,-99999.0,'11111222,11111222,99999999' 
TABS,ioos:station:wmo:42049:1,2012-04-04T18:30:00Z,28.3507,-96.0058,2.0,250.9946426,47.9962634,-99999.0,'11111222,11111222,99999999' 
TABS,ioos:station:wmo:42049:1,2012-04-04T19:30:00Z,28.3507,-96.0058,2.0,251.0033176,50.99733719,-99999.0,'11111222,11111222,99999999' 
TABS,ioos:station:wmo:42049:1,2012-04-04T20:00:00Z,28.3507,-96.0058,2.0,254.0042784,52.00335566,-99999.0,'11111222,11111222,99999999' 
TABS,ioos:station:wmo:42049:1,2012-04-04T20:30:00Z,28.3507,-96.0058,2.0,256.9975604,52.00325855,-99999.0,'11111222,11111222,99999999' 
TABS,ioos:station:wmo:42049:1,2012-04-04T21:00:00Z,28.3507,-96.0058,2.0,251.0033176,50.99733719,-99999.0,'11111222,11111222,99999999' 
TABS,ioos:station:wmo:42049:1,2012-04-04T22:30:00Z,28.3507,-96.0058,2.0,249.000684,47.99766765,-99999.0,'11111222,11111222,99999999' 
TABS,ioos:station:wmo:42049:1,2012-04-04T23:00:00Z,28.3507,-96.0058,2.0,249.000684,47.99766765,-99999.0,'11111222,11111222,99999999' 
TABS,ioos:station:wmo:42049:1,2012-04-04T23:30:00Z,28.3507,-96.0058,2.0,247.9987086,47.99510808,-99999.0,'11111222,11111222,99999999' 
TABS,ioos:station:wmo:42049:1,2012-04-05T00:00:00Z,28.3507,-96.0058,2.0,247.9967631,47.00349455,-99999.0,'11111222,11111222,99999999' 
TABS,ioos:station:wmo:42049:1,2012-04-05T00:30:00Z,28.3507,-96.0058,2.0,242.9953512,49.0026336,-99999.0,'11111222,11111222,99999999' 
TABS,ioos:station:wmo:42049:1,2012-04-05T01:00:00Z,28.3507,-96.0058,2.0,244.993561,47.99931354,-99999.0,'11111222,11111222,99999999' 
TABS,ioos:station:wmo:42049:1,2012-04-05T01:30:00Z,28.3507,-96.0058,2.0,246.0029241,50.99780093,-99999.0,'11111222,11111222,99999999' 
TABS,ioos:station:wmo:42049:1,2012-04-05T02:00:00Z,28.3507,-96.0058,2.0,236.9961817,53.00263578,-99999.0,'11111222,11111222,99999999' 
TABS,ioos:station:wmo:42049:1,2012-04-05T02:30:00Z,28.3507,-96.0058,2.0,239.9989215,54.99878999,-99999.0,'11111222,11111222,99999999' 
TABS,ioos:station:wmo:42049:1,2012-04-05T03:00:00Z,28.3507,-96.0058,2.0,243.0013521,55.00437255,-99999.0,'11111222,11111222,99999999' 
TABS,ioos:station:wmo:42049:1,2012-04-05T04:30:00Z,28.3507,-96.0058,2.0,249.0032586,45.99384741,-99999.0,'11111222,11111222,99999999' 
TABS,ioos:station:wmo:42049:1,2012-04-05T05:00:00Z,28.3507,-96.0058,2.0,255.0101839,6.998121176,-99999.0,'11133222,11111222,99999999' 
TABS,ioos:station:wmo:42049:1,2012-04-05T05:30:00Z,28.3507,-96.0058,2.0,250.9935085,45.99761407,-99999.0,'11111222,11111222,99999999' 
TABS,ioos:station:wmo:42049:1,2012-04-05T06:00:00Z,28.3507,-96.0058,2.0,251.9986272,43.00504738,-99999.0,'11111222,11111222,99999999' 
TABS,ioos:station:wmo:42049:1,2012-04-05T06:30:00Z,28.3507,-96.0058,2.0,255.0005349,42.0009738,-99999.0,'11111222,11111222,99999999' 
TABS,ioos:station:wmo:42049:1,2012-04-05T07:00:00Z,28.3507,-96.0058,2.0,254.9943936,38.00591664,-99999.0,'11111222,11111222,99999999' 
TABS,ioos:station:wmo:42049:1,2012-04-05T07:30:00Z,28.3507,-96.0058,2.0,263.998766,33.00083181,-99999.0,'11111222,11111222,99999999' 
TABS,ioos:station:wmo:42049:1,2012-04-05T08:00:00Z,28.3507,-96.0058,2.0,320.0035476,32.99912878,-99999.0,'11111222,11111222,99999999' 
TABS,ioos:station:wmo:42049:1,2012-04-05T08:30:00Z,28.3507,-96.0058,2.0,263.00693,28.99567726,-99999.0,'11111222,11111222,99999999' 
TABS,ioos:station:wmo:42049:1,2012-04-05T09:00:00Z,28.3507,-96.0058,2.0,261.0039572,22.00060226,-99999.0,'11111222,11111222,99999999' 
TABS,ioos:station:wmo:42049:1,2012-04-05T09:30:00Z,28.3507,-96.0058,2.0,253.9980152,21.00381394,-99999.0,'11111222,11111222,99999999' 
TABS,ioos:station:wmo:42049:1,2012-04-05T11:00:00Z,28.3507,-96.0058,2.0,227.9885129,16.00238107,-99999.0,'11111222,11111222,99999999' 
TABS,ioos:station:wmo:42049:1,2012-04-05T11:30:00Z,28.3507,-96.0058,2.0,116.0158463,13.99842848,-99999.0,'11111222,11111222,99999999' 
TABS,ioos:station:wmo:42049:1,2012-04-05T12:00:00Z,28.3507,-96.0058,2.0,195.0003945,15.99506486,-99999.0,'11111222,11111222,99999999' 
TABS,ioos:station:wmo:42049:1,2012-04-05T12:30:00Z,28.3507,-96.0058,2.0,98.01357746,15.99620267,-99999.0,'11111222,11111222,99999999' 
TABS,ioos:station:wmo:42049:1,2012-04-05T13:00:00Z,28.3507,-96.0058,2.0,193.9869667,17.0041789,-99999.0,'11111222,11111222,99999999' 
TABS,ioos:station:wmo:42049:1,2012-04-05T13:30:00Z,28.3507,-96.0058,2.0,226.9993348,60.99682041,-99999.0,'11111222,11111222,99999999' 
TABS,ioos:station:wmo:42049:1,2012-04-05T14:00:00Z,28.3507,-96.0058,2.0,177.0106716,13.9990464,-99999.0,'11111222,11111222,99999999' 
TABS,ioos:station:wmo:42049:1,2012-04-05T14:30:00Z,28.3507,-96.0058,2.0,166.9971511,16.00025312,-99999.0,'11111222,11111222,99999999' 
TABS,ioos:station:wmo:42049:1,2012-04-05T15:00:00Z,28.3507,-96.0058,2.0,165.0093574,15.00048333,-99999.0,'11111222,11111222,99999999' 
TABS,ioos:station:wmo:42049:1,2012-04-05T15:30:00Z,28.3507,-96.0058,2.0,161.9963188,20.99811896,-99999.0,'11111222,11111222,99999999' 
TABS,ioos:station:wmo:42049:1,2012-04-05T16:30:00Z,28.3507,-96.0058,2.0,237.0020998,41.99387217,-99999.0,'11111222,11111222,99999999' 